Bear River@Wheatland

Start Stop
DateFlow
CFS
Gauge
Feet
DateFlow
CFS
Gauge
Feet
01/16/2021 20:4513-0.23
01/16/2021 19:4513-0.23
01/16/2021 18:4512-0.24
01/16/2021 17:4513-0.23
01/16/2021 16:4513-0.23
01/16/2021 15:4513-0.23
01/16/2021 14:4512-0.24
01/16/2021 13:4513-0.23
01/16/2021 12:4513-0.23
01/16/2021 11:4513-0.23
01/16/2021 10:4513-0.23
01/16/2021 09:4513-0.23
01/16/2021 08:4512-0.24
01/16/2021 07:4512-0.24
01/16/2021 06:4512-0.24
01/16/2021 05:4512-0.24
01/16/2021 04:4512-0.24
01/16/2021 03:4512-0.24
01/16/2021 02:4513-0.23
01/16/2021 01:4513-0.23
01/15/2021 07:4513-0.23
01/15/2021 06:4512-0.24
01/15/2021 05:4513-0.23
01/15/2021 04:4512-0.24
01/15/2021 03:4512-0.24
01/15/2021 02:4513-0.23
01/15/2021 00:4513-0.23
01/14/2021 23:4512-0.24
01/14/2021 22:4512-0.24
01/14/2021 21:4513-0.23
01/14/2021 16:4513-0.23
01/14/2021 15:4512-0.24
01/14/2021 01:4512-0.24
01/13/2021 13:4512-0.24
01/13/2021 12:4513-0.23
01/13/2021 11:4512-0.24
01/13/2021 01:4512-0.24
01/13/2021 00:4512 
01/12/2021 09:45 -0.24
01/12/2021 08:45 -0.25
01/12/2021 07:45 -0.24
01/12/2021 06:4512-0.24
01/12/2021 05:4513-0.23
01/12/2021 01:45 -0.23
01/12/2021 00:4513-0.22
01/11/2021 23:4515-0.2
01/11/2021 22:4514-0.21
01/11/2021 21:4513-0.22
01/11/2021 20:4514-0.21
01/11/2021 19:4515-0.2
01/11/2021 18:4515-0.19
01/11/2021 17:4516-0.18
01/11/2021 16:4517-0.17
01/11/2021 15:4515-0.19
01/11/2021 14:4513-0.22
01/11/2021 13:45 -0.23
01/11/2021 09:4513-0.23
01/11/2021 08:4512-0.24
01/11/2021 02:4512-0.24
01/11/2021 01:4513-0.23
01/11/2021 00:4513-0.23
01/10/2021 23:4512-0.24
01/10/2021 21:4512-0.24
01/10/2021 20:4513-0.23
01/10/2021 10:4513-0.23
01/10/2021 09:4512-0.24
01/10/2021 08:45 -0.24
01/10/2021 07:45 -0.25
01/10/2021 06:45 -0.25
01/10/2021 05:45 -0.24
01/09/2021 21:4512-0.24
01/09/2021 18:4513-0.23
01/09/2021 17:4513-0.23
01/09/2021 16:4512-0.24
01/09/2021 15:4513-0.23
01/09/2021 14:4512-0.24
01/09/2021 12:4512-0.24
01/09/2021 11:4513-0.23
01/09/2021 10:4512-0.24
01/09/2021 05:4512-0.24
01/09/2021 04:4513-0.23
01/09/2021 03:4513-0.23
01/09/2021 02:4512-0.24
01/09/2021 01:4513-0.23
01/09/2021 00:4512-0.24
01/08/2021 23:4513-0.23
01/08/2021 21:4513-0.23
01/08/2021 20:4512-0.24
01/08/2021 19:4513-0.23
01/08/2021 09:4513-0.23
01/08/2021 08:4512-0.24
01/08/2021 06:4512-0.24
01/08/2021 05:4513-0.23
01/08/2021 04:4512-0.24
01/08/2021 03:4512-0.24
01/08/2021 02:4513-0.23
01/07/2021 23:4513-0.23
01/07/2021 22:4512-0.24
01/07/2021 21:4513-0.23
01/07/2021 03:45 -0.23
01/07/2021 02:45 -0.22
01/07/2021 01:4513-0.23
01/07/2021 00:4513 
01/06/2021 20:45 -0.23
01/06/2021 19:45 -0.22
01/06/2021 18:45 -0.22
01/06/2021 17:45 -0.23
01/06/2021 15:45 -0.23
01/06/2021 14:45 -0.22
01/06/2021 13:45 -0.23
01/06/2021 12:45 -0.22
01/06/2021 11:45 -0.22
01/06/2021 10:45 -0.23
01/06/2021 03:45 -0.23
01/06/2021 02:45 -0.22
01/06/2021 01:45 -0.23
01/06/2021 00:4513-0.22
01/05/2021 23:4512-0.24
01/05/2021 22:4513-0.22
01/05/2021 09:45 -0.22
01/05/2021 08:45 -0.23
01/05/2021 07:45 -0.22
01/05/2021 06:45 -0.22
01/05/2021 05:45 -0.23
01/05/2021 04:45 -0.22
01/05/2021 02:45 -0.22
01/05/2021 01:4513-0.23
01/04/2021 23:45 -0.23
01/04/2021 22:45 -0.22
01/04/2021 21:4513-0.22
01/04/2021 20:4514-0.21
01/04/2021 16:4514-0.21
01/04/2021 15:4515-0.2
01/04/2021 11:4515-0.2
01/04/2021 10:4514-0.21
01/04/2021 09:4514-0.21
01/04/2021 08:4513-0.22
01/04/2021 07:45 -0.22
01/04/2021 06:45 -0.23
01/03/2021 23:45 -0.23
01/03/2021 22:45 -0.22
01/03/2021 21:45 -0.22
01/03/2021 20:45 -0.23
01/03/2021 19:45 -0.22
01/03/2021 18:45 -0.22
01/03/2021 17:45 -0.23
01/03/2021 16:45 -0.22
01/03/2021 15:45 -0.23
01/03/2021 10:4513-0.23
01/03/2021 09:4512-0.24
01/03/2021 06:4512-0.24
01/03/2021 05:4513-0.23
01/03/2021 04:4512-0.24
01/03/2021 03:4513-0.23
01/03/2021 02:4512-0.24
01/03/2021 01:4513-0.23
01/02/2021 23:45 -0.23
01/02/2021 22:45 -0.22
01/02/2021 17:45 -0.22
01/02/2021 16:45 -0.23
01/02/2021 15:45 -0.23
01/02/2021 14:45 -0.22
01/02/2021 13:45 -0.23
01/02/2021 11:4513-0.23
01/02/2021 10:4512-0.24
01/02/2021 09:4512-0.24
01/02/2021 08:4513-0.23
01/02/2021 07:4513-0.22
01/02/2021 06:4512-0.24
01/02/2021 02:4512-0.24
01/02/2021 01:4513-0.23
01/02/2021 00:45 -0.23
01/01/2021 23:45 -0.22
01/01/2021 10:45 -0.22
01/01/2021 09:45 -0.23
01/01/2021 02:45 -0.23
01/01/2021 01:4513-0.22
12/31/2020 19:4513-0.22
12/31/2020 18:4514-0.21
12/31/2020 17:4514-0.21
12/31/2020 16:4515-0.2
12/31/2020 15:4515-0.19
12/31/2020 14:4517-0.17
12/31/2020 13:4519-0.14
12/31/2020 12:4522-0.1
12/31/2020 11:4524-0.07
12/31/2020 10:4517-0.17
12/31/2020 09:4514-0.21
12/31/2020 08:4513-0.22
12/31/2020 07:4513-0.22
12/31/2020 06:4514-0.21
12/31/2020 05:4513-0.22
12/31/2020 04:4513-0.22
12/31/2020 03:4514-0.21
12/31/2020 01:4514-0.21
12/31/2020 00:4515-0.2
12/30/2020 23:4515-0.2
12/30/2020 22:4514-0.21
12/30/2020 21:4514-0.21
12/30/2020 20:4513-0.22
12/30/2020 19:4514-0.21
12/30/2020 18:4514-0.21
12/30/2020 17:4513-0.22
12/30/2020 14:4513-0.22
12/30/2020 13:4514-0.21
12/30/2020 12:4513-0.22
12/30/2020 10:45 -0.22
12/30/2020 09:45 -0.23
12/30/2020 07:45 -0.23
12/30/2020 06:45 -0.22
12/29/2020 14:4513-0.22
12/29/2020 13:4514-0.21
12/29/2020 12:4513-0.22
12/29/2020 11:4514-0.21
12/29/2020 09:4514-0.21
12/29/2020 08:4513-0.22
12/29/2020 05:4513-0.22
12/29/2020 04:4514-0.21
12/29/2020 03:4513-0.22
12/29/2020 02:4513-0.22
12/29/2020 01:4514-0.21
12/28/2020 14:4514-0.21
12/28/2020 13:4515-0.2
12/28/2020 12:4514-0.21
12/28/2020 11:4515-0.2
12/28/2020 09:4515-0.2
12/28/2020 08:4514-0.21
12/28/2020 05:4514-0.21
12/28/2020 04:4513-0.22
12/28/2020 02:4513-0.22
12/28/2020 01:4514-0.21
12/28/2020 00:4513-0.22
12/27/2020 22:4513-0.22
12/27/2020 21:4514-0.21
12/27/2020 20:4513-0.22
12/27/2020 13:4513-0.22
12/27/2020 12:4514-0.21
12/27/2020 11:4513-0.22
12/27/2020 09:4513-0.22
12/27/2020 08:4514-0.21
12/27/2020 07:4513-0.22
12/27/2020 05:4513-0.22
12/27/2020 04:4514-0.21
12/27/2020 02:4514-0.21
12/27/2020 01:4513-0.22
12/26/2020 21:4513-0.22
12/26/2020 20:4514-0.21
12/26/2020 19:4513-0.22
12/26/2020 18:4513-0.22
12/26/2020 17:4514-0.21
12/26/2020 15:4514-0.21
12/26/2020 14:4513-0.22
12/26/2020 13:4514-0.21
12/26/2020 12:4514-0.21
12/26/2020 11:4515-0.2
12/26/2020 08:45 -0.2
12/26/2020 07:45 -0.19
12/26/2020 05:4515-0.19
12/26/2020 04:4516-0.18
12/26/2020 03:4516-0.18
12/26/2020 02:4515-0.2
12/26/2020 01:45 -0.19
12/25/2020 21:45 -0.19
12/25/2020 20:45 -0.2
12/25/2020 17:4515-0.2
12/25/2020 16:4514-0.21
12/25/2020 14:4514-0.21
12/25/2020 13:4513-0.22
12/25/2020 10:4513-0.22
12/25/2020 09:4514-0.21
12/25/2020 08:4513-0.22
12/24/2020 18:4513-0.22
12/24/2020 17:4514-0.21
12/24/2020 16:4513-0.22
12/24/2020 15:4513-0.22
12/24/2020 14:4514-0.21
12/24/2020 13:4513-0.22
12/24/2020 12:4514-0.21
12/24/2020 11:4514-0.21
12/24/2020 10:4513-0.22
12/24/2020 01:4513-0.22
12/23/2020 01:4513-0.22
12/22/2020 01:4513-0.22
12/21/2020 23:4513-0.22
12/21/2020 22:4514-0.21
12/21/2020 21:4513-0.22
12/21/2020 20:4514-0.21
12/21/2020 19:4513-0.22
12/21/2020 02:4513-0.22
12/21/2020 01:4514-0.21
12/20/2020 23:4514-0.21
12/20/2020 22:4513-0.22
12/20/2020 10:45 -0.22
12/20/2020 09:45 -0.23
12/20/2020 08:45 -0.22
12/20/2020 01:45 -0.22
12/20/2020 00:4513 
12/19/2020 01:45 -0.22
12/19/2020 00:4513 
12/18/2020 22:45 -0.22
12/18/2020 21:45 -0.23
12/18/2020 18:45 -0.23
12/18/2020 17:45 -0.22
12/18/2020 13:4513-0.22
12/18/2020 12:4514-0.21
12/18/2020 09:4514-0.21
12/18/2020 08:4513-0.22
12/18/2020 02:4513-0.22
12/18/2020 01:4514-0.21

Start Stop